Tracking 18852 objects as of 24-Nov-2017
HD Live streaming from Space Station
objects crossing your sky now

COSMOS 2497

Track COSMOS 2497 now!
10-day predictions
COSMOS 2497 is classified as:


NORAD ID: 39762
Int'l Code: 2014-028B
Perigee: 1,484.3 km
Apogee: 1,518.9 km
Inclination: 82.4 °
Period: 115.9 minutes
Semi major axis: 7872 km
RCS: Unknown
Launch date: May 23, 2014
Source: Commonwealth of Independent States (former USSR) (CIS)
Launch site: PLESETSK MISSILE AND SPACE COMPLEX (PKMTR)

COSMOS 2497 is part of the Russian military's Rodnik, or Strela 3M, system designed to relay messages between users posted in remote locations.
aabbcc
Your satellite tracking list
Your tracking list is empty




NASA's NSSDC Master Catalog

Two Line Element Set (TLE):
1 39762U 14028B   17327.43510590 -.00000003 +00000-0 -90313-4 0  9994
2 39762 082.4494 268.3597 0021999 045.8043 314.4838 12.42870843159032
Source of the keplerian elements: AFSPC